Wetbulb
59.13 59.53 59.32 59.62 60.61 60.44 60.18 60.39 60.74 60.51 60.27 59.85 60.06 61.09 60.76 59.95 59.25 53.93 50.44 55.81 57.38 62.14 62.23 53.82 51.91 50.32 50.59 46.55 47.21 44.56 34.95 31.66 34.04 36.60 37.74 41.43 41.23 43.24 44.62 41.95 41.99 43.34 42.85 46.35 49.56
59.74 60.06 60.43 60.86 60.89 60.25 60.75 60.55 59.55 59.32 59.60 60.08 60.52 60.52 60.18 59.56 51.88 48.22 57.27 60.72 61.44 63.98 53.24 50.24 47.87 49.16 43.91 44.51 43.93 40.29 33.72 35.91 40.41 39.55 38.26 42.05 41.45 41.49 40.15 40.43 40.82 42.80 45.60 47.93 48.05
61.21 61.32 61.29 61.13 60.75 60.53 59.93 59.34 58.71 59.02 59.55 59.94 60.12 60.32 59.76 57.24 46.79 46.79 59.25 60.17 61.10 58.52 53.52 52.24 50.63 48.14 42.32 43.27 41.86 39.88 35.21 41.12 42.04 43.27 43.52 41.45 40.93 42.54 40.04 37.16 40.64 40.75 43.12 45.54 45.88
59.76 60.32 60.56 60.63 60.44 59.77 58.95 58.54 58.79 58.87 59.10 59.70 59.86 59.83 58.87 51.86 37.08 48.94 58.55 59.26 59.68 54.88 52.17 48.27 45.79 41.72 39.17 38.69 43.54 35.23 41.36 43.27 43.66 44.29 42.48 40.21 42.26 39.76 40.81 40.91 43.48 44.07 44.84 44.74 44.60
58.77 58.61 58.44 58.73 59.01 58.81 58.42 57.99 57.81 58.14 58.40 58.93 59.23 58.71 52.81 44.24 42.99 51.49 59.15 55.57 52.77 52.49 49.20 46.64 42.29 40.42 37.76 38.38 40.04 37.57 40.50 43.30 43.55 42.58 41.97 42.40 40.54 39.51 40.02 43.10 43.65 44.03 44.42 43.46 43.72
57.59 57.68 57.94 57.91 57.98 57.73 57.13 57.20 57.53 57.75 57.76 58.24 58.73 57.08 48.78 37.85 50.14 50.80 50.26 50.33 50.94 50.06 48.14 47.50 44.21 43.88 39.25 37.94 36.59 39.72 40.57 40.70 41.86 42.41 42.73 40.75 39.53 39.00 40.05 41.13 42.82 42.75 42.21 42.88 43.34
57.13 56.77 56.85 57.30 57.02 56.98 57.46 58.31 57.66 57.35 57.37 58.22 58.10 52.05 43.58 41.55 49.15 49.56 50.69 48.35 50.22 49.60 47.22 48.49 47.83 43.35 40.81 38.33 42.44 41.45 37.54 38.96 40.33 41.90 40.05 39.38 36.19 35.89 39.78 41.34 40.68 41.33 42.20 43.44 43.49
56.69 56.19 56.19 56.54 56.73 56.20 55.97 56.63 56.90 56.33 56.33 56.73 58.04 45.94 39.16 49.97 48.31 49.26 49.90 48.13 49.47 51.05 49.84 49.57 48.93 45.90 42.10 41.56 40.11 36.77 34.98 30.25 38.01 40.47 40.05 39.31 31.65 38.26 40.18 37.99 38.64 40.11 41.66 41.94 41.98
56.18 55.70 55.59 55.94 56.23 55.89 55.18 56.05 56.35 56.80 57.43 56.55 46.46 42.58 37.44 53.02 47.08 48.38 48.04 46.62 47.54 48.27 48.86 50.73 47.70 41.65 40.69 34.08 31.42 31.31 27.08 28.19 33.43 39.17 38.85 36.73 32.80 37.11 39.04 38.09 37.46 38.19 39.60 40.83 41.14
55.43 55.26 55.32 55.47 56.04 55.82 54.52 56.21 55.96 53.20 51.83 50.74 47.67 40.48 43.33 41.96 46.84 48.27 48.63 48.68 45.27 44.90 45.17 44.21 39.29 34.76 32.93 30.36 22.72 25.59 26.09 28.76 29.13 35.50 35.94 33.67 34.08 38.27 38.72 38.21 36.62 37.07 38.22 39.59 40.08
55.23 54.79 54.90 55.40 56.16 55.53 50.46 47.87 43.58 40.25 43.86 39.67 40.47 41.05 43.99 47.57 49.12 47.08 48.77 46.49 45.13 41.59 33.94 37.64 32.65 28.85 30.19 31.37 31.74 30.43 28.30 27.99 31.45 36.69 33.92 31.97 32.32 36.07 38.56 36.20 35.69 37.39 38.06 39.38 40.30
55.14 55.57 55.34 55.05 55.22 55.84 49.46 44.23 44.06 42.88 36.70 43.58 43.94 44.20 46.25 47.05 42.66 45.64 48.12 40.14 38.58 33.63 35.63 34.31 30.00 34.12 36.48 35.32 33.35 31.06 28.12 27.92 32.18 35.43 33.88 32.12 32.71 35.83 36.89 36.43 38.19 37.51 38.88 39.45 40.32
55.02 55.68 55.37 54.77 54.08 49.37 46.10 45.41 49.56 47.85 36.61 39.55 43.29 43.00 43.17 46.06 41.32 41.93 44.65 41.04 36.43 34.03 33.25 29.43 33.56 37.63 35.80 32.88 32.46 29.74 27.81 27.37 29.12 32.44 32.94 30.97 29.59 31.38 36.22 38.59 38.70 39.44 39.39 40.67 40.08
54.93 55.42 55.59 54.76 47.85 46.27 44.09 48.85 49.29 47.96 30.49 36.09 39.63 42.99 45.22 44.83 39.92 46.24 46.37 41.22 37.73 33.02 33.02 32.71 36.21 34.91 33.06 32.65 32.48 26.79 33.83 33.00 31.58 28.62 24.77 31.40 23.25 28.33 30.25 33.76 36.49 38.46 38.92 40.09 40.54
54.98 54.98 55.66 53.23 44.30 44.83 47.21 48.93 47.72 42.13 19.90 37.49 39.36 46.77 45.08 40.48 40.65 42.05 46.11 41.45 34.75 34.28 32.84 30.71 32.80 32.41 30.96 33.20 33.87 31.32 34.44 32.32 31.33 27.26 26.06 26.29 22.24 28.25 29.69 30.49 34.13 37.86 39.75 40.75 41.75
55.23 54.31 53.57 48.85 46.42 47.29 49.10 48.04 45.58 30.18 20.17 34.93 40.12 39.28 38.19 40.19 40.48 41.63 41.39 41.69 39.71 34.64 34.06 32.54 36.15 33.27 32.36 35.30 35.13 36.07 32.29 31.65 28.83 26.87 21.22 26.50 24.16 26.37 27.61 30.00 32.02 36.33 39.66 41.77 42.70
55.24 53.12 50.93 49.88 42.55 48.93 48.67 44.30 30.83 25.64 36.18 34.64 34.89 38.06 35.91 35.85 37.42 37.31 35.87 32.64 29.04 27.01 25.59 30.90 32.06 34.07 36.24 31.24 34.41 32.78 28.19 22.48 22.24 19.84 21.83 27.84 24.17 28.08 30.12 33.29 34.67 36.79 38.92 38.61 37.86
54.72 51.92 51.28 49.33 48.05 49.08 45.73 36.70 24.67 33.34 32.06 37.87 37.04 36.68 32.54 34.08 34.32 35.13 32.19 30.23 31.49 29.04 24.72 22.54 26.28 31.72 35.15 31.05 28.45 27.71 28.64 21.45 15.60 16.95 20.55 27.26 23.59 28.24 31.15 34.20 36.22 37.00 35.43 37.01 37.22
52.07 48.22 47.16 46.81 48.64 47.55 39.76 26.04 28.54 32.18 36.17 36.08 36.47 31.69 32.18 34.25 32.53 33.17 29.25 28.97 29.19 28.42 26.86 24.78 27.71 32.43 33.46 33.80 32.78 28.44 25.24 30.04 24.24 20.71 18.85 24.26 28.21 29.24 32.12 32.75 33.19 33.95 36.04 35.70 36.90
44.29 44.88 46.61 47.89 48.04 44.59 36.12 32.43 32.49 37.88 38.13 36.97 30.08 32.07 28.95 30.73 30.69 31.56 30.11 30.83 31.21 31.55 30.75 27.56 24.48 31.19 32.67 33.63 33.44 30.18 32.26 22.73 23.21 16.05 19.43 22.65 23.46 26.49 28.78 30.21 31.52 31.22 33.10 35.09 36.28
46.71 42.87 47.47 48.42 47.30 40.63 30.30 32.10 37.02 39.69 39.24 36.15 33.14 31.54 30.67 29.70 29.90 30.98 31.27 31.31 33.74 32.21 31.38 29.53 27.04 28.37 30.95 28.81 29.38 28.77 26.25 26.86 25.38 24.52 18.76 13.88 22.89 31.20 30.41 32.65 32.14 32.24 34.75 35.90 36.19
41.93 34.23 46.93 47.05 40.49 36.50 34.67 37.08 41.40 38.61 39.00 37.59 35.39 34.57 31.98 31.38 30.33 31.06 31.92 31.16 35.33 34.83 30.54 30.41 26.85 21.54 28.56 31.73 31.48 30.11 28.47 27.87 21.39 20.40 22.29 21.19 24.44 34.67 31.86 31.58 33.82 33.38 36.37 37.37 36.58
40.18 40.40 47.58 45.21 33.76 34.42 38.07 39.51 39.47 37.86 37.20 37.13 35.60 36.86 34.59 32.11 30.09 32.87 32.88 35.43 35.64 34.44 32.67 32.82 25.65 18.11 24.35 26.65 29.87 26.82 28.21 29.39 29.17 27.08 22.06 20.66 22.24 33.05 30.32 33.69 36.28 36.90 35.47 35.25 35.82
40.05 34.59 39.88 40.72 38.56 35.49 34.29 35.01 36.69 38.93 38.27 38.50 36.61 35.83 33.75 32.31 34.08 31.81 32.34 35.16 35.21 34.82 41.98 38.54 28.12 25.89 21.68 24.34 28.20 27.07 29.43 29.57 26.56 24.21 23.87 26.03 27.72 33.11 35.36 35.75 36.60 35.53 33.00 34.29 34.79
39.46 37.16 37.43 30.53 36.08 35.74 36.18 36.18 35.64 35.60 37.81 37.67 35.06 35.55 33.75 30.49 31.62 31.68 33.21 34.82 34.85 37.62 35.27 32.18 21.92 26.00 28.94 30.44 28.94 28.87 28.41 29.33 26.32 27.75 23.89 26.30 26.72 31.65 34.58 35.17 33.85 32.70 33.34 33.88 35.69
38.20 36.23 37.55 35.77 36.78 34.81 36.20 34.50 36.22 37.11 37.52 36.25 34.52 36.06 35.08 32.41 33.21 31.06 32.77 32.25 33.09 32.41 30.77 29.55 22.46 20.06 18.99 28.18 28.43 27.13 29.01 29.31 29.17 29.22 28.80 29.20 28.26 35.55 34.77 32.24 32.20 33.34 34.72 34.89 35.38
41.70 41.94 38.76 35.03 34.55 34.34 34.18 35.32 36.91 37.95 38.78 38.83 36.01 33.52 33.19 34.97 36.91 37.05 37.07 36.47 35.79 33.26 29.26 29.33 26.87 24.46 23.73 26.40 25.19 18.70 25.73 28.57 27.84 29.19 29.21 25.09 29.02 31.80 31.84 33.59 33.68 33.38 34.95 34.92 35.41
MSLP
1017.23 1017.47 1017.53 1017.41 1017.21 1017.18 1017.29 1017.24 1017.56 1017.60 1017.50 1017.52 1017.55 1017.32 1017.21 1016.97 1016.74 1016.68 1017.18 1017.72 1017.18 1016.73 1016.29 1016.08 1015.92 1016.04 1016.10 1016.68 1016.95 1017.38 1018.39 1018.67 1018.12 1017.79 1017.50 1017.62 1017.59 1017.09 1016.88 1016.69 1016.53 1015.88 1015.63 1015.30 1015.07
1017.64 1017.50 1017.51 1017.47 1017.43 1017.58 1017.43 1017.67 1017.85 1017.67 1017.61 1017.71 1017.57 1017.40 1017.31 1017.19 1017.16 1017.16 1017.81 1017.27 1016.87 1016.55 1016.60 1016.68 1016.69 1016.59 1016.87 1017.18 1017.54 1018.04 1018.83 1018.45 1018.01 1017.78 1017.76 1017.83 1017.90 1017.82 1017.54 1017.19 1016.70 1016.20 1015.76 1015.38 1015.18
1017.94 1017.85 1017.76 1017.80 1017.80 1017.81 1017.96 1017.99 1017.80 1017.75 1017.75 1017.66 1017.45 1017.38 1017.26 1017.08 1017.36 1018.24 1017.59 1017.22 1016.88 1016.65 1016.57 1016.74 1016.89 1016.98 1017.28 1017.48 1017.96 1018.34 1018.54 1018.32 1017.91 1017.72 1017.80 1017.88 1017.70 1017.64 1017.56 1017.39 1016.92 1016.64 1016.05 1015.71 1015.45
1018.54 1018.46 1018.34 1018.27 1018.28 1018.32 1018.27 1018.15 1018.01 1017.95 1017.92 1017.70 1017.50 1017.34 1017.17 1017.12 1018.45 1018.34 1017.72 1017.45 1017.17 1016.75 1016.67 1016.92 1017.19 1017.41 1017.74 1017.98 1018.10 1018.43 1018.29 1018.27 1017.88 1017.80 1018.01 1018.07 1017.87 1017.81 1017.59 1016.95 1016.46 1016.44 1016.16 1015.94 1015.61
1019.08 1018.90 1018.77 1018.67 1018.59 1018.48 1018.40 1018.34 1018.27 1018.16 1017.96 1017.77 1017.66 1017.47 1017.22 1018.05 1018.83 1018.27 1017.95 1017.71 1017.28 1017.21 1017.43 1017.56 1017.93 1018.04 1018.19 1018.30 1018.35 1018.42 1018.35 1018.26 1017.96 1017.99 1017.94 1017.86 1017.68 1017.77 1017.10 1016.51 1016.36 1016.10 1015.91 1015.84 1015.65
1019.39 1019.29 1019.17 1018.99 1018.82 1018.72 1018.64 1018.52 1018.39 1018.26 1018.16 1018.00 1017.75 1017.58 1017.67 1018.64 1018.66 1018.46 1018.12 1017.77 1017.75 1017.84 1018.08 1018.14 1018.54 1018.41 1018.50 1018.51 1018.52 1018.47 1018.48 1018.33 1017.99 1017.83 1017.70 1017.63 1017.42 1017.37 1016.41 1016.21 1016.21 1016.21 1015.94 1015.61 1015.52
1019.67 1019.51 1019.35 1019.18 1019.02 1018.89 1018.72 1018.57 1018.39 1018.25 1018.16 1018.05 1017.87 1017.84 1018.28 1019.03 1018.70 1018.40 1018.07 1018.00 1018.07 1018.19 1018.32 1018.46 1018.56 1018.54 1018.71 1018.70 1018.59 1018.62 1018.85 1018.44 1018.08 1017.73 1017.59 1017.36 1017.01 1017.08 1016.24 1016.35 1016.37 1016.18 1015.81 1015.76 1015.65
1019.71 1019.55 1019.43 1019.28 1019.12 1018.92 1018.73 1018.57 1018.43 1018.27 1018.20 1018.12 1018.01 1018.05 1018.82 1018.62 1018.59 1018.37 1018.23 1018.29 1018.26 1018.25 1018.35 1018.46 1018.51 1018.80 1018.96 1018.89 1019.03 1019.16 1019.43 1019.12 1018.23 1017.89 1017.77 1017.82 1017.32 1016.60 1016.50 1016.73 1016.58 1016.26 1016.11 1015.96 1015.61
1019.87 1019.66 1019.45 1019.26 1019.04 1018.83 1018.68 1018.54 1018.44 1018.33 1018.25 1018.11 1018.11 1018.20 1019.14 1018.65 1018.64 1018.62 1018.58 1018.53 1018.44 1018.38 1018.41 1018.36 1018.66 1019.28 1019.34 1019.67 1020.06 1020.26 1020.17 1020.00 1018.94 1018.34 1018.47 1018.50 1017.72 1016.71 1016.70 1016.88 1016.74 1016.38 1016.31 1016.10 1015.68
1019.90 1019.65 1019.47 1019.31 1019.10 1018.86 1018.65 1018.54 1018.41 1018.22 1017.99 1018.04 1018.18 1018.85 1019.16 1019.32 1018.99 1018.70 1018.41 1018.51 1018.66 1018.59 1018.67 1018.88 1019.54 1019.91 1020.33 1020.54 1021.07 1021.10 1021.08 1020.64 1020.20 1019.26 1019.01 1018.69 1017.69 1016.82 1016.37 1016.67 1016.63 1016.45 1016.49 1016.24 1015.95
1019.80 1019.54 1019.35 1019.23 1019.08 1018.89 1018.74 1018.62 1019.19 1019.15 1019.05 1019.51 1019.56 1019.44 1019.41 1019.30 1018.92 1018.77 1018.67 1018.67 1018.77 1019.12 1019.47 1019.58 1020.22 1020.92 1021.14 1021.00 1020.94 1021.20 1021.41 1021.35 1020.47 1019.67 1019.62 1018.76 1018.01 1016.89 1016.05 1016.21 1016.28 1016.49 1016.35 1016.23 1015.97
1019.88 1019.66 1019.41 1019.31 1019.17 1018.91 1019.11 1019.82 1020.32 1020.45 1020.33 1019.80 1019.56 1019.47 1019.44 1019.48 1019.40 1019.19 1018.96 1019.19 1019.29 1019.68 1019.71 1020.13 1020.67 1020.87 1020.77 1020.85 1020.94 1021.00 1021.19 1021.29 1020.42 1020.04 1020.09 1018.83 1017.68 1016.33 1015.82 1015.73 1015.82 1016.07 1016.27 1016.26 1016.01
1019.94 1019.49 1019.36 1019.27 1019.17 1019.37 1019.92 1020.44 1020.46 1020.39 1020.36 1020.13 1019.77 1019.60 1019.64 1019.71 1019.74 1019.58 1019.49 1019.52 1019.71 1020.03 1020.39 1020.58 1020.83 1020.63 1020.71 1020.69 1020.71 1020.95 1021.28 1021.43 1021.62 1020.68 1019.86 1019.44 1017.85 1016.61 1015.83 1015.63 1015.76 1015.98 1016.36 1016.26 1016.14
1020.04 1019.78 1019.43 1019.13 1019.51 1019.97 1020.48 1020.53 1020.35 1020.28 1020.77 1020.79 1019.92 1019.61 1019.55 1019.41 1019.65 1019.48 1019.52 1019.89 1019.97 1020.47 1020.65 1020.80 1020.70 1020.72 1020.57 1020.76 1021.05 1021.10 1020.97 1021.41 1021.65 1021.78 1021.31 1020.36 1019.31 1017.23 1016.23 1015.99 1016.00 1016.26 1016.38 1016.24 1016.08
1020.26 1019.91 1019.51 1019.03 1019.80 1020.43 1020.80 1020.51 1020.47 1020.65 1021.57 1020.61 1019.69 1019.18 1019.26 1019.57 1019.71 1019.62 1019.67 1019.66 1020.37 1020.66 1020.84 1021.15 1020.87 1020.78 1020.87 1021.01 1021.17 1021.11 1021.14 1021.56 1021.73 1022.03 1022.04 1020.95 1020.46 1017.30 1016.65 1016.31 1016.31 1016.37 1016.33 1016.12 1015.86
1020.36 1019.91 1019.60 1019.77 1020.30 1020.64 1020.59 1020.53 1020.73 1021.09 1021.40 1020.68 1019.93 1019.70 1019.60 1019.56 1019.63 1019.53 1019.69 1019.81 1020.28 1020.72 1020.99 1021.18 1021.14 1021.14 1021.06 1021.03 1021.19 1021.23 1021.39 1021.79 1022.19 1022.55 1022.44 1020.95 1020.36 1017.76 1016.83 1016.17 1016.16 1016.17 1016.25 1016.21 1016.00
1020.40 1020.19 1019.88 1020.11 1020.59 1020.49 1020.57 1020.88 1021.36 1021.86 1021.54 1021.02 1020.38 1020.07 1020.09 1020.02 1019.84 1019.95 1020.26 1020.64 1021.27 1021.53 1022.18 1021.68 1021.34 1021.14 1021.15 1021.26 1021.36 1021.81 1022.37 1022.87 1023.41 1023.45 1022.52 1021.25 1020.44 1017.51 1016.48 1016.03 1016.04 1016.24 1016.37 1016.37 1016.31
1020.09 1020.07 1020.31 1020.41 1020.47 1020.49 1020.81 1021.27 1021.72 1022.05 1021.54 1021.04 1020.62 1020.35 1020.39 1020.36 1020.27 1020.34 1020.73 1021.50 1021.85 1022.31 1023.10 1023.21 1021.91 1021.61 1021.49 1021.72 1022.18 1022.60 1023.19 1024.21 1024.95 1024.93 1023.72 1021.66 1020.06 1017.48 1016.60 1016.31 1016.31 1016.33 1016.52 1016.65 1016.66
1019.91 1020.35 1020.49 1020.55 1020.39 1020.58 1020.96 1021.85 1022.36 1022.01 1021.66 1021.35 1020.77 1020.69 1020.70 1020.61 1020.81 1020.85 1021.19 1021.87 1022.25 1022.58 1023.20 1023.40 1022.59 1021.90 1021.90 1022.07 1022.54 1022.96 1023.52 1024.14 1024.91 1025.32 1024.79 1021.97 1019.47 1017.64 1017.00 1016.75 1016.73 1016.92 1017.01 1017.07 1016.90
1020.47 1020.66 1020.71 1020.38 1020.33 1020.66 1021.26 1022.57 1022.32 1021.74 1021.49 1021.49 1021.59 1021.36 1021.40 1021.31 1021.42 1021.47 1021.54 1021.89 1022.30 1022.60 1022.90 1023.64 1023.56 1022.56 1022.49 1022.42 1022.68 1022.97 1023.73 1024.51 1025.43 1025.78 1024.91 1022.36 1020.44 1018.31 1017.41 1017.03 1016.95 1017.02 1017.15 1017.11 1017.05
1020.66 1021.36 1020.93 1020.61 1020.47 1020.87 1022.48 1022.55 1022.09 1021.75 1021.67 1021.76 1021.73 1021.72 1021.71 1021.70 1021.67 1021.75 1021.56 1021.90 1022.12 1022.77 1023.11 1023.63 1024.36 1023.63 1023.23 1022.99 1022.80 1023.43 1023.64 1024.47 1025.36 1025.52 1025.23 1023.57 1020.38 1017.65 1017.13 1016.91 1017.01 1017.09 1017.17 1017.15 1017.06
1021.57 1021.91 1021.10 1020.73 1021.49 1022.41 1022.74 1022.23 1021.96 1021.85 1021.85 1021.88 1021.90 1021.85 1021.87 1021.90 1021.95 1021.89 1021.60 1021.59 1021.89 1022.37 1023.27 1023.90 1024.76 1024.89 1023.59 1022.96 1022.97 1023.19 1023.59 1024.26 1025.30 1025.30 1024.80 1023.62 1019.99 1017.43 1017.07 1017.00 1017.04 1017.10 1017.10 1016.96 1016.77
1023.14 1022.55 1021.40 1021.24 1022.53 1023.21 1022.71 1022.38 1022.05 1021.93 1021.84 1021.97 1022.00 1022.03 1022.07 1022.30 1022.41 1021.91 1021.73 1021.74 1022.05 1022.59 1023.09 1023.97 1025.12 1025.29 1023.99 1023.83 1023.23 1023.30 1023.57 1023.96 1024.60 1024.77 1024.21 1023.68 1020.09 1017.95 1017.36 1017.08 1017.00 1017.36 1017.17 1016.73 1016.83
1023.48 1023.48 1022.81 1022.78 1023.39 1023.22 1023.13 1022.65 1022.23 1021.90 1021.96 1021.98 1022.06 1022.14 1022.40 1022.47 1022.39 1022.31 1022.18 1022.20 1022.45 1022.78 1023.11 1023.73 1024.88 1025.24 1024.80 1023.91 1023.86 1023.82 1023.53 1023.82 1024.36 1024.41 1022.96 1021.75 1019.22 1018.30 1017.46 1017.52 1017.42 1017.56 1017.59 1017.57 1017.45
1023.79 1024.56 1024.59 1024.29 1024.15 1023.67 1023.23 1022.89 1022.54 1022.24 1022.12 1022.12 1022.39 1022.56 1022.78 1022.96 1022.85 1022.84 1022.76 1022.85 1022.92 1023.00 1023.60 1024.43 1025.18 1025.26 1024.60 1024.13 1023.90 1023.37 1023.30 1022.86 1022.95 1022.14 1022.48 1019.39 1019.87 1018.22 1017.94 1018.13 1017.84 1017.53 1017.58 1017.96 1017.85
1024.36 1024.73 1024.86 1024.77 1024.33 1024.03 1023.71 1023.35 1022.85 1022.45 1022.36 1022.45 1022.75 1022.83 1023.03 1023.24 1023.16 1023.29 1023.41 1023.64 1023.53 1023.66 1024.08 1024.76 1024.98 1025.31 1024.84 1024.29 1023.54 1022.38 1021.95 1021.24 1021.08 1021.04 1020.68 1020.10 1019.35 1018.56 1018.36 1018.34 1018.16 1018.11 1018.22 1018.29 1018.01
1024.99 1024.80 1024.92 1025.15 1024.77 1024.57 1024.08 1023.68 1023.47 1023.22 1022.70 1022.65 1022.95 1023.19 1023.17 1022.92 1022.99 1023.09 1023.22 1023.33 1023.27 1023.55 1024.31 1024.79 1025.12 1025.53 1023.94 1023.61 1023.11 1021.67 1019.32 1019.13 1019.62 1019.61 1019.63 1019.56 1019.22 1018.97 1018.78 1018.53 1018.32 1018.34 1018.35 1018.23 1018.01
Wind_Speed
11 12 10 6 11 14 12 13 10 9 8 7 6 8 10 9 4 5 11 5 8 12 11 6 4 6 3 3 5 3 5 1 2 3 4 4 5 5 4 2 5 4 3 4 7
6 5 8 8 14 12 13 11 8 8 7 6 7 9 8 9 3 13 8 11 13 14 5 7 6 7 4 3 4 5 4 4 2 1 3 4 1 4 3 7 4 6 6 9 6
18 16 14 14 12 12 11 8 7 7 7 7 9 9 9 6 3 5 12 14 14 10 1 1 3 1 3 3 2 1 4 1 3 2 1 3 6 1 4 4 7 8 8 8 7
14 13 12 11 10 9 7 6 6 6 7 9 10 10 12 2 4 4 11 12 12 8 5 5 4 3 3 2 0 1 3 2 3 2 4 3 3 4 5 9 7 9 9 8 11
13 11 9 7 6 5 4 4 4 5 7 9 8 8 4 7 2 5 8 9 5 5 6 4 5 1 3 0 1 2 2 4 5 8 7 4 8 7 9 11 8 8 8 10 9
12 10 9 7 6 5 4 4 5 6 7 8 8 8 2 7 5 6 6 5 6 6 6 6 2 1 1 1 2 2 4 7 7 5 5 4 4 1 6 3 7 8 10 8 8
10 9 9 8 7 7 6 6 6 6 7 7 8 3 9 4 2 7 6 2 3 3 3 2 2 3 0 2 3 2 6 6 3 2 2 3 4 6 6 6 9 9 8 8 8
10 9 8 7 7 8 6 6 7 7 8 7 6 3 4 3 2 4 5 2 5 1 2 0 3 1 1 3 2 3 3 5 3 4 3 8 10 7 5 5 12 10 7 7 7
8 8 7 7 8 8 5 5 6 8 7 7 2 5 2 3 3 5 0 2 5 2 2 2 4 2 3 3 4 6 2 3 10 7 3 2 11 6 4 6 10 8 7 7 8
9 8 7 7 8 8 5 2 6 7 3 1 1 4 4 2 3 4 3 1 1 4 4 5 4 3 5 6 2 4 4 4 4 6 4 9 20 18 12 6 8 6 8 7 7
12 10 9 8 7 7 4 3 5 7 9 3 2 4 1 6 2 4 3 4 3 2 3 2 7 3 1 1 2 2 2 5 6 8 7 6 13 19 13 5 5 4 6 8 7
12 9 8 7 7 4 4 4 3 1 5 2 1 3 1 1 3 5 5 3 3 2 3 6 3 3 3 2 2 1 3 6 7 2 6 7 16 12 5 1 3 2 6 7 7
13 12 8 7 6 5 4 3 1 2 5 3 2 2 2 2 1 5 4 2 4 4 4 4 2 1 1 2 5 3 3 2 6 8 3 7 7 6 4 4 3 4 4 5 6
15 12 8 6 7 2 3 3 3 2 7 9 4 1 1 0 3 2 2 1 4 2 1 3 1 1 3 4 3 5 3 2 6 6 4 5 6 5 1 2 3 6 6 6 6
14 14 10 4 5 3 1 3 3 3 7 4 5 0 3 2 2 3 2 2 2 3 3 2 3 6 3 0 1 8 2 6 2 3 4 1 3 7 1 2 3 6 6 6 6
12 13 6 4 3 1 1 2 3 10 2 5 2 5 3 2 2 1 1 4 2 3 3 1 1 1 2 3 3 7 4 3 4 3 2 3 4 6 3 3 1 3 6 7 8
11 8 4 1 2 0 2 3 8 8 3 5 3 4 2 4 4 5 4 6 4 6 7 6 2 1 0 4 2 7 6 5 6 5 5 4 1 10 2 2 1 3 6 7 7
11 4 3 1 1 2 3 6 9 3 3 2 2 3 2 4 2 5 3 4 5 4 3 3 7 1 1 2 1 2 3 6 5 2 6 5 7 6 0 2 4 4 3 5 7
5 2 2 3 1 2 5 8 6 4 2 5 5 4 4 4 3 6 1 3 1 2 2 2 5 1 0 1 2 1 2 2 1 2 2 4 8 2 2 4 4 6 6 7 7
3 2 3 3 2 4 7 4 2 1 1 2 1 2 2 3 3 4 2 2 3 1 2 3 5 2 1 1 1 1 2 3 3 1 5 6 7 6 6 3 2 3 5 6 4
4 4 3 3 3 6 5 4 2 1 2 3 3 2 1 2 1 2 3 1 5 3 2 3 4 6 1 4 5 1 1 2 3 4 4 3 8 7 5 6 7 4 4 7 6
3 3 3 3 6 2 3 3 1 3 0 1 2 4 3 1 3 3 4 3 5 7 5 2 4 4 10 1 2 2 3 4 4 5 4 2 9 3 5 3 5 2 5 7 5
3 2 3 3 4 2 3 1 1 3 3 4 3 5 2 3 3 5 3 2 5 6 8 6 1 4 10 6 1 2 2 3 2 2 7 3 9 2 3 6 8 12 11 7 3
3 3 5 5 0 5 2 2 2 1 2 2 2 1 1 3 5 4 2 1 4 4 4 4 5 9 9 8 4 6 6 5 5 5 9 15 21 21 22 21 15 7 4 7 5
3 0 2 2 3 2 2 1 2 2 2 2 2 4 4 3 2 5 1 3 2 4 5 4 6 6 10 10 6 13 15 20 17 19 14 15 17 22 18 15 8 4 3 1 5
3 2 3 1 2 1 1 3 4 2 4 3 4 2 1 5 5 4 0 3 7 1 6 2 5 3 4 10 15 20 19 21 22 19 20 22 24 19 9 4 5 5 3 4 5
2 1 4 2 1 3 3 1 1 3 4 1 3 1 5 8 7 8 8 7 7 7 8 6 4 1 9 2 7 9 14 16 5 6 7 9 5 2 4 5 5 3 4 5 7
Wind_Direction
110 114 127 152 114 98 105 94 94 83 80 70 38 29 15 360 3 28 50 344 347 337 341 315 26 354 44 54 36 73 61 221 319 358 288 22 16 333 286 275 334 276 291 257 301
101 97 110 107 93 96 87 89 84 67 43 26 21 18 7 344 40 58 354 354 354 347 4 25 7 359 32 44 20 76 105 216 188 246 273 302 42 288 339 322 285 296 300 308 314
64 75 81 80 83 84 85 81 56 33 13 1 4 354 344 335 63 344 340 356 1 357 238 319 319 24 69 60 16 156 180 250 216 219 273 269 311 251 300 294 241 267 275 279 280
64 67 72 75 82 81 69 55 41 15 348 355 354 346 336 10 95 289 352 355 3 15 46 37 28 46 83 100 76 337 218 213 264 296 332 279 254 269 215 241 234 258 267 282 281
48 51 56 60 70 66 48 32 9 356 351 352 348 349 20 47 85 286 344 352 19 22 49 47 54 30 105 317 8 181 268 296 277 295 261 260 247 233 246 259 285 284 294 278 289
30 32 31 28 20 1 345 346 342 339 343 349 350 338 65 77 265 332 331 355 27 34 29 48 87 36 105 253 157 247 276 273 285 255 253 259 269 61 274 273 309 312 297 308 315
15 13 11 9 5 349 335 337 339 333 339 343 351 12 62 148 293 321 3 331 17 73 64 49 71 79 80 341 339 314 317 313 218 257 254 282 326 223 243 2 312 320 322 327 313
2 358 356 357 354 346 332 326 335 337 334 336 333 62 80 320 310 4 1 18 5 40 92 117 58 71 150 313 342 330 56 7 287 338 43 69 278 289 283 351 312 316 314 317 335
2 353 348 350 350 348 341 341 335 318 299 318 38 95 75 314 19 304 263 1 323 325 348 353 51 48 15 50 13 4 311 336 332 1 321 42 281 249 300 309 294 308 320 336 326
13 5 353 350 353 351 329 291 307 339 330 196 4 55 3 333 297 331 301 341 0 344 29 45 42 72 32 41 242 324 344 331 267 291 25 290 270 285 292 306 291 298 310 335 324
13 7 357 354 0 11 7 12 25 357 37 81 262 130 337 299 318 355 336 353 23 37 36 356 65 68 249 278 157 171 215 262 243 276 312 260 284 284 291 282 277 286 337 326 318
8 1 358 358 352 349 67 68 71 187 87 17 72 75 50 24 360 333 359 68 58 73 9 27 81 216 236 201 196 180 324 296 297 300 326 305 288 286 271 233 155 7 342 327 329
357 356 1 3 357 40 80 112 347 343 88 349 2 32 297 16 61 315 38 339 63 47 15 127 193 272 308 351 23 317 216 285 264 320 276 309 305 346 19 83 42 5 316 323 320
347 346 348 340 46 151 48 329 8 42 79 320 346 359 29 120 22 328 23 129 36 81 125 86 282 6 17 43 60 323 193 283 291 14 295 59 280 308 20 65 347 318 310 317 324
344 339 349 74 146 73 196 336 339 61 59 288 319 212 324 55 287 352 338 31 97 334 78 285 21 15 21 284 103 244 333 287 244 193 9 286 66 265 310 252 289 299 318 316 314
350 340 7 28 53 127 328 22 59 43 281 342 299 353 20 10 348 300 48 57 159 92 37 327 2 168 256 289 209 300 322 33 52 82 13 253 130 280 202 204 275 310 324 327 322
349 350 29 50 151 340 65 54 38 88 288 314 328 0 348 327 360 27 26 16 47 37 9 339 301 258 19 342 39 19 26 337 350 4 227 316 330 245 234 180 142 336 345 347 344
341 13 18 58 343 55 68 57 71 233 229 323 332 327 50 7 360 359 44 27 31 70 69 58 331 180 117 87 284 334 122 147 254 275 285 309 239 267 193 48 28 26 355 1 352
4 11 45 325 343 98 76 51 189 202 341 354 336 26 345 10 10 17 29 173 162 58 122 47 279 335 7 103 106 18 52 166 98 282 22 264 285 359 62 46 15 18 12 348 349
68 46 328 315 49 60 72 173 203 185 95 75 9 34 326 318 353 7 233 176 168 146 124 185 310 239 104 46 36 158 164 43 5 319 268 284 282 243 225 188 99 43 9 332 329
58 52 295 355 48 48 111 213 168 158 161 161 207 260 226 272 255 248 232 236 174 170 136 124 122 288 358 202 189 97 204 136 142 171 201 272 267 217 214 194 149 94 359 306 302
70 53 312 359 51 48 126 187 157 190 131 228 175 214 215 238 257 259 239 230 169 157 164 168 148 260 235 267 308 245 233 156 130 261 244 203 268 306 225 114 117 27 306 280 270
56 267 325 61 104 4 309 321 238 182 208 188 231 208 190 234 270 225 248 214 178 156 166 179 247 347 331 5 25 209 213 189 141 338 210 204 262 201 274 311 296 334 330 309 9
66 15 334 41 95 123 61 256 249 261 275 223 220 111 153 242 226 273 259 254 207 213 180 143 184 184 214 224 180 258 262 253 176 221 256 231 265 286 290 302 304 308 325 344 62
42 194 201 306 334 107 147 219 247 259 212 198 284 219 181 260 264 241 221 346 222 221 165 150 208 224 250 270 264 263 256 258 235 240 237 262 254 266 282 302 285 287 343 44 14
98 88 2 283 309 151 214 242 204 247 168 240 205 35 259 234 221 274 205 207 228 146 171 191 261 116 269 253 253 264 259 253 250 255 256 259 264 279 296 336 10 348 27 353 338
325 18 110 294 346 114 232 267 32 355 298 173 137 176 266 254 228 224 218 217 223 189 202 182 186 349 279 235 304 289 247 237 200 216 221 228 217 302 334 339 315 336 4 332 316